Temp
59 59 58 57 55 54 62 77 74 87 92 74 78 75 82 78 86 88 86 85 83 80 79 77 77 75 80 85 84 78 83 79 72 76 84 88 84 75 78 71 65 62 64 59
59 59 58 56 55 54 68 73 79 88 87 69 75 80 83 85 83 84 83 82 84 84 78 72 77 78 84 83 82 78 82 74 67 71 80 84 78 82 82 77 75 66 64 68
59 59 57 56 55 55 63 72 70 79 78 81 78 78 78 77 86 86 86 84 86 81 78 80 75 76 81 82 83 71 77 75 70 66 70 75 71 76 71 67 71 69 72 71
59 59 58 57 56 55 62 74 73 76 69 73 77 80 80 75 77 84 87 81 82 80 74 76 75 78 80 82 71 77 79 69 74 76 78 78 76 69 57 53 67 71 73 68
59 59 58 57 56 55 66 66 67 72 70 74 75 70 75 76 80 80 79 78 81 82 76 78 75 78 77 76 81 78 83 69 72 70 77 77 74 75 62 65 75 68 76 72
59 59 58 58 56 56 71 70 73 67 63 71 72 74 75 76 81 84 84 83 81 80 83 87 87 87 86 84 78 77 75 73 69 64 74 71 66 74 71 75 79 66 64 77
59 59 59 59 58 56 70 70 63 62 60 69 72 76 77 77 79 76 83 85 81 87 93 90 89 88 85 83 82 84 74 70 70 65 68 54 71 68 64 68 78 68 67 81
59 59 59 59 58 57 66 66 63 61 58 67 68 71 73 78 79 77 80 84 89 92 86 77 72 74 74 76 81 80 81 73 66 62 62 66 71 70 70 70 72 81 79 80
58 58 59 59 59 57 62 65 65 59 59 63 68 67 72 68 74 75 79 85 90 89 81 75 64 62 68 67 71 79 80 77 68 65 55 44 64 58 62 59 65 81 83 80
58 58 59 59 59 58 61 62 67 62 57 65 68 64 66 74 74 70 79 78 79 87 76 68 66 64 72 62 63 65 68 68 64 64 61 62 76 73 79 59 61 72 83 81
57 58 58 59 59 59 59 64 66 63 60 68 69 71 68 70 72 68 77 74 77 75 69 69 68 67 70 67 70 68 66 63 63 65 57 52 78 76 67 70 76 72 73 72
57 58 58 58 58 58 59 56 67 65 54 64 67 70 73 73 72 69 74 74 75 79 74 75 74 69 73 68 62 74 64 70 56 67 62 74 78 77 80 80 78 80 75 73
57 57 58 58 58 58 58 58 63 62 57 66 66 65 75 80 79 82 66 75 79 81 83 78 77 67 76 68 70 67 74 77 71 70 68 76 78 80 81 80 79 80 80 78
57 57 58 58 58 58 58 56 62 61 58 59 72 84 77 84 84 79 78 76 79 82 82 79 76 73 80 73 73 72 63 75 72 72 76 77 78 79 80 80 79 80 81 81
57 57 57 58 58 57 59 58 60 63 55 49 63 75 81 84 81 78 77 76 75 76 76 76 72 80 78 80 78 75 79 75 73 67 76 70 74 80 81 79 79 81 80 78
56 57 57 57 57 56 58 54 63 61 59 52 59 80 76 80 80 77 75 76 77 76 75 75 82 81 80 72 70 79 83 82 82 78 82 79 81 82 81 80 80 79 81 80
56 56 56 56 56 59 55 54 58 59 61 52 60 68 77 79 78 78 77 78 77 74 74 75 74 78 77 75 69 78 83 84 82 84 83 78 81 79 83 83 83 77 82 82
56 56 56 56 55 55 58 68 57 60 56 58 59 65 70 79 72 71 80 74 75 74 70 72 72 75 78 69 76 79 82 83 82 83 85 84 85 83 83 84 82 78 74 75
56 56 56 57 53 53 60 60 59 65 54 55 63 58 56 77 74 75 76 77 67 77 68 71 71 67 66 73 75 77 79 80 81 83 85 86 83 81 81 82 81 80 75 73
55 56 53 50 59 58 60 59 54 52 53 63 61 67 58 71 71 67 71 73 66 57 68 74 65 67 75 77 79 79 80 83 84 80 78 81 81 81 80 81 83 83 83 81
56 51 50 63 59 65 61 53 56 60 56 65 66 66 62 75 60 63 66 56 61 55 67 67 64 63 70 78 78 80 82 84 84 86 86 85 84 83 81 82 83 83 83 81
51 51 58 64 55 55 52 52 60 60 57 66 66 66 70 69 76 58 58 57 64 56 73 65 59 69 74 76 78 81 82 83 84 86 85 85 85 86 83 83 83 83 83 82
52 50 48 53 56 43 50 50 55 58 67 68 67 65 70 70 73 61 56 51 56 67 59 59 65 71 75 75 77 80 84 84 84 84 85 86 85 86 85 83 84 83 81 81
47 46 41 49 49 56 60 59 60 65 67 66 69 66 66 70 66 60 52 59 61 56 57 60 69 71 75 77 79 80 81 83 82 82 83 84 84 83 84 84 84 82 78 79
46 48 41 48 62 63 66 68 67 70 73 65 64 64 68 66 62 63 59 51 48 59 60 70 73 76 76 77 78 79 80 82 81 82 82 83 83 82 81 83 84 82 79 78
48 49 50 59 58 58 62 65 65 70 63 65 65 58 59 57 62 59 56 55 55 62 70 73 74 72 74 74 76 78 80 81 81 82 83 83 82 81 81 83 83 81 79 77
48 54 62 61 59 58 63 64 65 65 59 54 55 53 55 62 59 57 63 61 66 71 74 72 72 71 70 73 75 76 77 78 79 81 81 81 82 83 81 78 79 81 79 77
MSLP
1019.52 1019.48 1019.15 1018.68 1018.05 1016.68 1014.54 1012.54 1009.04 1008.85 1008.80 1008.19 1006.62 1004.74 1003.17 1002.05 1001.79 1002.32 1001.73 1001.64 1001.40 1001.68 1002.22 1002.42 1002.39 1002.42 1002.84 1003.96 1004.16 1003.89 1003.72 1003.20 1001.90 1001.37 1001.63 1001.57 1001.74 1003.07 1002.92 1002.04 1002.68 1003.81 1004.14 1004.28
1019.41 1019.36 1019.10 1018.73 1018.36 1017.78 1016.07 1012.13 1008.77 1008.63 1008.44 1006.50 1004.89 1004.20 1002.79 1002.04 1002.17 1001.90 1002.05 1001.87 1001.77 1002.35 1002.64 1002.85 1003.04 1003.16 1004.11 1004.96 1005.05 1004.66 1004.42 1003.89 1002.90 1001.78 1001.40 1001.40 1001.98 1002.47 1002.84 1003.48 1003.60 1003.47 1003.56 1004.01
1019.25 1019.19 1019.05 1018.74 1018.40 1018.07 1017.24 1012.84 1008.82 1007.66 1008.16 1006.42 1004.40 1003.03 1002.54 1002.37 1002.37 1001.61 1001.85 1001.85 1001.93 1002.46 1002.63 1003.22 1003.22 1003.72 1004.32 1005.36 1005.48 1006.06 1006.30 1005.23 1004.20 1002.75 1001.60 1002.61 1003.24 1003.40 1004.94 1005.00 1002.87 1003.13 1003.05 1003.95
1019.25 1019.04 1018.98 1018.66 1018.33 1017.94 1017.52 1012.74 1009.22 1008.19 1006.77 1006.21 1005.05 1003.53 1002.52 1002.44 1001.92 1002.20 1001.71 1001.90 1001.82 1002.22 1002.47 1002.64 1003.15 1003.49 1003.80 1004.91 1005.83 1006.20 1005.90 1004.95 1004.22 1003.46 1002.81 1002.75 1003.09 1004.35 1005.42 1006.44 1004.96 1002.50 1003.12 1004.28
1019.21 1019.08 1018.99 1018.54 1018.10 1017.64 1016.44 1013.29 1011.56 1010.16 1008.38 1006.62 1005.16 1004.12 1003.00 1002.13 1001.62 1001.91 1001.94 1002.06 1002.16 1002.12 1002.19 1002.23 1002.37 1002.98 1003.68 1004.18 1004.54 1005.23 1004.86 1004.58 1004.53 1003.86 1003.16 1003.11 1003.27 1003.99 1005.71 1005.81 1004.37 1004.08 1003.48 1004.06
1019.15 1018.99 1018.78 1018.43 1018.10 1017.71 1015.40 1014.40 1013.36 1012.50 1009.58 1007.30 1005.68 1004.16 1003.64 1002.78 1002.13 1001.78 1002.01 1002.13 1001.94 1001.68 1001.80 1002.20 1002.49 1003.21 1003.47 1003.62 1004.34 1004.48 1004.55 1004.46 1004.20 1003.36 1003.17 1003.70 1003.44 1003.87 1004.88 1004.55 1003.83 1004.79 1004.47 1003.73
1019.00 1018.82 1018.58 1018.40 1018.04 1017.84 1016.38 1015.76 1015.38 1013.20 1010.48 1008.18 1006.00 1004.86 1004.20 1003.50 1002.90 1002.35 1002.23 1002.20 1001.92 1001.85 1001.76 1002.63 1003.19 1003.20 1003.61 1004.14 1004.36 1004.41 1004.62 1004.92 1004.96 1004.34 1004.18 1003.73 1003.92 1005.72 1005.79 1006.44 1003.66 1004.56 1005.85 1003.30
1018.87 1018.68 1018.42 1018.27 1018.04 1017.88 1016.94 1016.56 1015.84 1014.19 1011.87 1009.73 1007.89 1006.42 1005.20 1003.82 1003.54 1003.38 1002.66 1002.26 1002.17 1002.52 1002.82 1003.14 1003.34 1003.52 1003.80 1003.82 1004.04 1004.22 1004.38 1004.94 1004.78 1004.52 1004.28 1004.57 1004.77 1006.05 1006.54 1005.68 1003.80 1003.20 1003.56 1002.78
1018.79 1018.61 1018.36 1018.15 1018.05 1017.90 1017.60 1016.65 1016.54 1015.49 1013.26 1010.48 1009.62 1008.26 1006.24 1005.21 1004.10 1003.89 1003.58 1003.40 1003.36 1002.80 1002.74 1002.94 1003.01 1002.98 1003.01 1003.45 1003.75 1004.44 1004.51 1004.91 1005.72 1005.07 1005.04 1006.01 1006.58 1007.46 1007.79 1007.70 1004.35 1003.31 1002.66 1003.72
1018.58 1018.45 1018.23 1018.00 1017.89 1017.84 1017.64 1016.62 1016.41 1015.71 1013.64 1011.10 1010.23 1009.14 1008.11 1006.50 1005.18 1004.67 1003.02 1003.79 1003.60 1003.11 1002.69 1002.72 1002.88 1003.25 1003.80 1004.24 1004.01 1004.06 1004.42 1005.00 1004.85 1004.61 1004.82 1005.52 1004.73 1006.32 1006.16 1005.66 1006.02 1004.85 1002.95 1003.97
1018.30 1018.24 1018.04 1017.84 1017.75 1017.72 1017.62 1016.15 1016.18 1015.74 1013.98 1011.45 1010.69 1009.89 1009.09 1008.06 1006.64 1005.18 1003.90 1004.46 1003.88 1003.59 1003.09 1002.83 1003.00 1003.61 1003.72 1004.38 1004.21 1004.08 1004.35 1004.40 1004.30 1004.78 1005.17 1005.55 1005.28 1005.46 1005.34 1005.74 1005.24 1002.94 1004.92 1005.75
1018.04 1017.95 1017.78 1017.64 1017.53 1017.56 1017.63 1016.64 1015.79 1016.06 1015.70 1012.49 1011.60 1010.82 1010.04 1009.37 1008.86 1008.19 1006.18 1004.69 1003.91 1003.08 1003.03 1002.72 1002.95 1003.26 1003.31 1003.88 1003.52 1004.65 1004.80 1004.34 1005.74 1004.60 1005.39 1005.48 1005.50 1005.47 1005.46 1005.65 1005.58 1005.21 1006.04 1006.76
1017.81 1017.69 1017.47 1017.31 1017.20 1017.22 1017.31 1016.66 1016.05 1015.89 1014.74 1011.75 1010.18 1008.92 1008.29 1008.61 1008.52 1008.55 1007.86 1005.80 1005.02 1003.84 1003.84 1003.05 1002.70 1002.99 1002.73 1002.48 1002.76 1004.40 1004.56 1004.85 1004.61 1004.63 1005.06 1004.66 1004.91 1005.21 1005.52 1005.93 1005.42 1006.07 1006.40 1007.21
1017.54 1017.36 1017.17 1017.01 1016.89 1016.91 1016.98 1016.62 1016.14 1015.77 1014.88 1011.82 1007.28 1006.52 1006.77 1006.88 1007.08 1007.68 1007.86 1007.50 1006.48 1005.30 1004.40 1003.11 1002.82 1002.64 1002.75 1002.57 1003.40 1003.60 1005.29 1005.03 1004.24 1004.00 1003.98 1004.64 1005.10 1004.94 1005.53 1005.94 1006.65 1006.65 1006.77 1007.34
1017.23 1017.06 1016.87 1016.71 1016.62 1016.64 1016.46 1016.15 1015.91 1015.66 1015.65 1013.23 1009.33 1007.43 1006.33 1006.28 1006.48 1006.88 1007.40 1007.32 1006.88 1005.68 1004.36 1003.44 1003.18 1002.50 1002.94 1002.76 1002.98 1002.77 1003.36 1003.39 1003.40 1004.06 1004.05 1004.80 1004.83 1005.31 1005.85 1006.34 1006.43 1006.67 1007.23 1008.06
1016.92 1016.77 1016.57 1016.46 1016.42 1016.56 1016.20 1015.49 1014.84 1015.61 1015.82 1014.50 1009.86 1006.25 1005.80 1005.46 1005.75 1006.31 1006.46 1006.73 1006.36 1006.21 1004.66 1003.66 1002.95 1003.54 1003.36 1002.51 1002.50 1002.73 1002.76 1003.18 1003.66 1003.66 1004.21 1004.62 1005.24 1005.56 1005.99 1006.42 1006.89 1007.49 1007.89 1008.64
1016.68 1016.52 1016.26 1016.19 1016.30 1016.24 1015.82 1015.50 1015.39 1015.16 1015.67 1014.32 1009.80 1005.97 1005.14 1005.24 1005.35 1005.52 1005.66 1006.08 1006.07 1006.11 1004.99 1004.30 1004.64 1003.66 1004.03 1002.96 1002.25 1002.50 1002.62 1003.16 1003.93 1004.16 1004.41 1004.70 1005.31 1005.77 1006.20 1006.55 1007.10 1007.96 1008.30 1009.01
1016.44 1016.32 1016.16 1016.19 1016.22 1016.26 1015.27 1013.98 1015.33 1015.50 1015.16 1013.50 1009.66 1006.03 1004.66 1004.80 1004.46 1004.38 1004.68 1005.08 1005.53 1005.39 1005.40 1005.48 1004.76 1004.31 1003.71 1003.25 1002.86 1003.08 1003.19 1003.08 1003.78 1004.23 1004.38 1004.51 1005.14 1005.88 1006.34 1006.75 1007.32 1007.96 1008.88 1009.43
1016.28 1016.17 1016.06 1016.01 1015.98 1015.22 1014.00 1014.33 1014.90 1014.84 1015.23 1012.14 1008.67 1006.23 1005.40 1004.52 1003.79 1003.78 1004.34 1004.38 1004.83 1004.43 1004.74 1004.91 1005.17 1004.17 1003.19 1003.48 1003.64 1003.64 1003.58 1003.35 1003.69 1004.11 1004.25 1004.09 1004.83 1005.82 1006.44 1006.78 1007.11 1007.32 1008.58 1009.55
1016.18 1016.13 1015.70 1014.80 1014.01 1014.12 1014.44 1014.70 1014.22 1014.37 1013.62 1011.27 1008.26 1006.29 1005.61 1004.73 1003.84 1004.18 1004.24 1004.16 1004.28 1004.88 1004.27 1004.20 1004.70 1003.86 1003.40 1003.78 1003.87 1003.97 1003.90 1003.63 1003.64 1003.54 1004.02 1004.21 1004.54 1005.40 1006.30 1006.55 1006.96 1007.26 1007.65 1008.61
1015.83 1015.44 1014.71 1013.53 1013.92 1013.26 1012.27 1011.85 1011.12 1010.57 1009.72 1008.04 1006.69 1005.86 1005.19 1004.78 1004.73 1004.53 1005.38 1006.22 1005.75 1004.80 1003.31 1003.24 1003.38 1003.22 1003.48 1003.72 1003.77 1003.92 1003.85 1003.66 1003.46 1003.22 1003.68 1004.14 1004.52 1004.98 1005.97 1006.28 1006.79 1007.34 1007.98 1008.57
1015.56 1015.34 1014.41 1013.54 1013.10 1012.08 1010.89 1009.70 1008.47 1007.54 1006.44 1005.30 1005.08 1004.96 1005.02 1005.13 1004.67 1006.10 1006.50 1006.20 1005.43 1004.16 1003.11 1002.89 1002.28 1002.27 1002.84 1003.23 1003.26 1003.16 1003.25 1003.24 1003.13 1003.17 1003.35 1003.80 1004.25 1004.57 1005.46 1006.14 1006.73 1007.49 1008.16 1008.86
1015.37 1015.22 1014.17 1012.62 1011.21 1010.38 1008.84 1007.24 1006.35 1005.41 1004.86 1004.81 1005.00 1004.91 1004.64 1005.06 1005.21 1006.09 1006.73 1006.22 1005.25 1004.36 1003.66 1002.27 1002.02 1002.40 1002.47 1002.68 1002.92 1002.64 1002.36 1002.60 1002.87 1003.00 1003.28 1003.45 1003.94 1004.53 1005.18 1006.01 1006.66 1007.54 1008.43 1009.22
1014.86 1014.06 1012.80 1011.07 1009.40 1007.78 1006.25 1005.73 1005.45 1005.13 1004.84 1005.25 1004.64 1004.44 1004.64 1004.52 1004.65 1006.20 1006.70 1005.90 1004.70 1003.54 1002.14 1001.40 1001.32 1001.74 1001.94 1002.14 1002.22 1002.16 1002.04 1002.12 1002.50 1002.91 1003.24 1003.37 1003.77 1004.51 1005.20 1005.84 1006.59 1007.46 1008.68 1009.42
1014.19 1013.08 1011.33 1009.70 1007.66 1006.91 1005.98 1005.66 1005.47 1005.27 1005.30 1005.84 1005.57 1005.08 1004.80 1004.32 1004.44 1004.81 1005.67 1006.19 1005.04 1002.75 1001.64 1001.10 1001.26 1001.48 1001.72 1001.84 1002.15 1002.22 1002.17 1002.04 1002.38 1002.82 1003.16 1003.39 1003.78 1004.45 1005.20 1005.72 1006.43 1007.32 1008.63 1009.37
1013.38 1012.16 1010.19 1008.21 1007.34 1006.64 1006.08 1005.42 1005.29 1005.64 1006.56 1006.70 1006.59 1005.82 1004.98 1004.82 1004.13 1004.00 1004.05 1003.76 1002.83 1002.19 1001.73 1001.40 1002.10 1002.06 1002.31 1002.62 1002.68 1002.61 1002.39 1002.14 1002.27 1002.61 1002.85 1003.31 1003.70 1004.41 1005.10 1005.71 1006.35 1007.23 1008.42 1009.28
1011.98 1009.90 1008.60 1007.82 1007.23 1006.55 1006.02 1006.08 1006.14 1006.52 1007.00 1007.12 1007.11 1006.04 1004.94 1004.58 1003.81 1003.43 1002.84 1002.34 1002.08 1002.14 1001.99 1002.46 1002.62 1002.89 1003.02 1003.15 1002.94 1002.71 1002.62 1002.45 1002.27 1002.38 1002.78 1003.29 1003.89 1004.42 1004.94 1005.59 1006.37 1007.19 1008.30 1009.17
Wind_Speed
8 9 12 13 16 23 11 7 9 5 9 10 12 15 23 10 11 11 9 8 9 6 6 8 7 4 3 7 4 9 5 9 11 12 3 10 7 12 22 11 10 7 16 3
7 9 11 11 12 13 9 7 8 7 9 10 13 20 22 8 17 16 15 12 7 5 6 4 5 2 11 3 8 3 7 7 11 15 15 16 10 16 14 14 10 13 9 3
7 8 10 10 11 9 7 6 6 7 8 14 18 14 19 14 20 14 15 12 11 8 7 4 3 5 8 3 9 10 5 14 15 15 17 4 10 17 17 18 13 16 11 1
7 8 9 10 11 10 6 5 5 8 6 13 17 18 17 19 17 15 13 12 12 12 9 11 8 4 8 12 10 7 11 14 14 16 19 15 15 7 9 22 39 17 9 13
6 8 9 10 10 12 6 5 6 10 14 13 15 15 17 18 20 16 19 16 15 14 13 8 3 7 7 7 14 8 11 11 10 14 17 16 14 14 28 35 18 2 18 12
7 8 9 9 9 9 4 4 7 5 10 11 12 13 15 18 15 14 13 16 16 16 13 10 0 3 6 3 5 10 10 10 11 14 12 11 16 14 16 19 19 3 10 12
8 9 8 8 7 8 6 3 4 5 9 11 12 12 16 19 17 14 11 18 10 13 3 5 4 9 4 5 8 10 10 9 9 13 14 16 7 9 2 35 16 13 24 4
8 9 8 7 4 5 7 3 4 3 8 11 14 14 12 9 16 8 12 7 11 6 7 9 8 10 10 13 13 12 11 8 11 12 14 14 10 5 17 21 19 16 19 4
8 9 10 8 4 4 7 3 3 4 6 7 8 13 14 11 11 12 19 3 7 9 9 10 9 8 4 3 6 4 10 7 9 13 9 5 10 9 5 34 10 12 14 6
9 9 9 9 5 4 5 3 5 4 5 8 10 8 10 13 13 10 12 8 12 15 12 10 8 8 2 6 10 8 9 9 13 13 9 8 4 17 9 7 4 18 4 5
8 8 9 9 6 5 5 4 5 5 5 11 10 11 13 11 8 9 5 8 10 8 12 11 4 6 6 7 9 8 7 9 9 6 3 8 7 2 7 6 6 14 17 14
8 8 9 9 7 7 6 4 4 4 4 8 14 15 16 16 14 9 8 8 8 7 9 7 3 6 5 5 8 4 8 5 3 5 3 3 2 7 3 7 8 5 10 8
9 9 10 10 7 7 9 3 2 3 6 13 15 14 20 19 18 13 6 6 11 4 8 3 5 6 6 8 7 10 10 5 6 5 7 3 2 0 2 2 4 8 6 12
9 9 10 10 6 7 9 4 3 4 5 7 3 6 11 9 16 20 16 14 13 8 6 6 4 6 6 3 5 5 5 6 5 8 6 4 5 4 8 7 9 8 10 11
8 9 10 9 6 5 7 4 4 5 4 5 9 18 15 12 9 13 15 14 13 8 6 6 9 5 5 5 4 5 11 5 5 3 4 9 8 10 11 8 8 10 12 12
8 9 10 8 5 5 4 4 6 8 4 4 7 3 6 7 11 15 15 11 7 7 6 5 3 5 4 5 7 8 7 2 1 2 2 10 10 8 14 13 10 8 12 13
8 9 8 5 5 5 4 3 3 7 5 4 6 5 10 7 10 12 9 12 9 7 5 3 10 5 5 9 4 4 7 6 7 3 7 7 11 8 10 12 11 12 13 14
6 6 5 4 3 7 7 9 9 6 3 6 6 5 5 11 7 9 9 8 8 7 5 6 10 5 5 6 1 3 10 6 9 8 8 10 9 11 9 11 13 14 11 10
4 5 4 3 3 4 2 12 12 5 3 6 5 6 1 4 8 5 8 8 9 7 10 13 5 10 7 7 7 5 5 7 10 10 9 9 13 13 10 11 11 16 16 7
3 3 3 3 3 18 15 7 6 5 5 7 7 6 3 4 6 6 8 6 5 2 10 8 9 14 9 9 6 5 6 6 14 14 11 11 13 14 12 11 10 10 12 17
3 3 3 2 8 6 6 4 7 8 7 7 8 11 1 3 3 5 5 3 2 5 7 11 8 13 13 14 10 10 11 11 12 11 11 13 12 14 13 11 10 9 12 14
1 2 5 3 4 5 6 5 5 6 6 6 8 8 8 4 1 3 2 3 3 6 5 7 15 8 10 13 17 14 14 13 14 13 12 14 14 14 15 12 11 11 10 11
1 2 3 5 5 5 7 8 6 5 5 4 4 6 4 4 3 3 6 8 6 1 5 8 6 5 9 14 15 17 14 13 16 14 13 14 14 12 14 14 12 13 12 12
3 4 5 6 5 6 6 2 3 3 4 1 4 5 6 5 6 7 3 6 6 7 7 8 5 9 9 9 11 11 14 14 16 16 14 14 14 13 13 15 14 15 15 15
3 4 4 6 7 6 4 3 3 3 1 4 4 3 1 5 3 4 5 4 4 6 7 2 1 7 8 6 4 6 8 10 13 14 14 14 15 14 14 15 14 16 16 16
3 5 6 6 6 6 6 5 3 2 3 2 2 4 5 6 3 5 8 5 5 2 3 5 6 5 4 3 4 6 7 9 12 15 14 15 16 15 15 15 15 16 17 17
5 7 8 9 5 5 4 1 2 3 4 4 2 5 5 0 5 8 5 10 7 2 3 5 6 4 3 2 4 5 7 9 11 13 12 14 15 16 15 15 15 16 16 15
Wind_Direction
321 323 324 330 330 328 301 283 243 130 176 200 217 226 239 233 210 202 246 286 226 219 158 228 246 262 83 80 321 268 34 306 283 242 75 225 176 210 275 276 195 187 238 38
326 325 326 332 335 354 318 281 292 141 222 223 219 227 240 203 241 191 222 213 220 171 207 242 286 205 90 129 260 327 347 253 262 241 247 198 226 251 261 233 271 274 307 96
331 331 326 329 330 337 299 277 256 159 211 257 274 221 233 209 239 221 210 222 203 177 212 191 179 224 137 213 258 54 326 276 275 285 314 264 269 268 335 334 256 245 232 129
337 340 327 325 325 327 289 246 286 6 200 228 247 261 223 224 204 227 213 214 219 202 214 206 206 246 153 183 147 223 232 253 261 269 275 282 267 166 8 323 283 275 226 358
342 332 318 323 326 318 257 314 339 352 298 303 242 244 262 226 223 188 226 225 214 237 220 245 271 182 209 285 165 226 241 258 277 283 286 276 264 223 177 213 282 220 274 206
325 327 320 322 332 324 299 11 284 272 289 264 250 242 224 248 236 224 210 218 244 214 231 243 311 280 305 240 258 259 236 284 271 264 273 309 270 268 317 269 244 290 291 291
318 311 316 324 338 334 312 10 294 282 279 271 268 250 231 237 249 250 206 248 218 252 157 68 230 255 227 263 247 238 255 245 267 275 289 261 276 308 21 281 281 171 248 257
318 318 319 321 325 307 293 310 278 268 277 294 299 293 287 241 228 245 252 236 256 199 192 217 210 225 222 236 235 242 248 234 272 272 261 336 260 238 315 309 261 227 223 304
314 316 318 319 300 281 277 266 264 283 286 236 306 299 296 276 241 216 227 213 259 224 215 214 230 251 286 308 186 231 251 198 260 276 287 215 253 7 6 269 247 275 275 206
304 310 310 320 299 253 269 290 253 262 267 276 269 259 308 314 268 275 181 186 205 224 222 230 223 241 105 265 261 174 204 228 238 238 253 292 72 188 221 238 308 317 309 212
295 304 304 309 302 256 251 290 195 255 279 286 279 279 278 289 267 294 146 171 215 194 227 238 182 256 206 234 263 287 261 246 253 259 304 256 20 262 264 50 288 233 62 83
285 295 304 295 287 247 240 273 191 229 247 287 322 277 272 269 276 306 308 301 260 206 218 242 209 207 218 223 238 152 241 318 205 266 224 267 265 291 351 334 299 322 109 119
280 290 302 301 276 249 221 274 257 243 263 259 229 243 240 231 235 247 280 246 339 225 360 306 237 236 254 217 203 191 190 205 247 291 27 292 322 284 190 276 339 59 134 159
281 286 299 300 274 254 234 225 227 263 284 279 254 173 230 227 206 216 232 266 300 286 277 259 242 228 202 304 95 287 62 239 225 248 227 208 150 130 127 125 116 143 146 134
282 289 298 290 274 253 257 238 233 233 289 321 308 316 251 223 208 208 219 237 255 284 224 223 230 243 196 227 301 233 177 191 239 75 19 119 135 118 124 124 144 120 118 121
283 288 291 276 240 246 255 252 183 204 195 274 272 341 251 222 189 206 204 216 236 255 281 238 247 347 241 226 208 210 168 170 260 54 139 111 117 134 137 148 141 133 133 131
278 286 299 250 205 236 248 351 8 133 172 247 257 240 174 210 196 200 198 204 203 218 245 228 270 212 210 274 271 149 174 166 142 219 143 165 148 136 128 147 145 144 141 139
277 288 280 235 228 268 265 211 186 149 242 261 271 257 194 180 186 184 188 181 203 209 201 263 258 224 203 247 338 2 299 173 164 202 198 176 171 131 139 147 157 142 143 152
277 288 280 226 216 226 104 110 140 184 260 291 259 291 346 237 214 169 174 192 192 201 200 209 213 269 216 216 257 279 279 237 192 202 218 173 161 153 160 161 186 164 150 182
286 260 221 227 227 116 136 176 169 189 220 231 256 286 234 264 198 190 188 194 192 178 226 174 208 240 256 204 252 249 283 252 238 197 214 200 180 164 180 175 176 190 175 166
207 214 232 97 157 214 215 221 213 184 215 210 227 246 244 258 231 226 90 287 228 205 212 192 211 227 233 242 230 245 257 255 238 240 208 207 205 177 182 188 163 162 179 158
42 307 262 249 212 227 240 201 222 215 234 169 215 202 205 233 199 118 342 210 246 227 194 216 234 229 202 220 232 235 240 234 234 229 221 204 204 197 176 188 168 160 162 169
229 231 240 210 203 226 233 193 207 203 184 160 179 192 220 156 211 228 142 220 204 233 221 210 221 221 231 218 234 243 227 219 223 224 219 217 191 190 177 185 171 157 150 157
239 197 224 236 201 236 235 293 298 5 80 51 236 170 200 201 188 130 281 335 308 213 230 229 207 175 218 222 224 235 238 223 211 217 214 225 188 184 180 183 176 157 160 165
244 238 220 241 250 281 247 260 284 221 64 341 281 306 230 198 216 177 152 184 246 268 237 277 312 204 187 194 188 217 232 222 209 208 211 212 197 179 180 182 179 165 169 170
237 238 249 266 278 262 265 257 246 138 99 59 290 277 183 221 225 206 201 206 230 85 285 68 129 88 118 185 242 259 259 237 211 205 202 200 191 185 177 179 180 171 174 175
223 229 239 246 253 274 227 178 258 80 157 159 293 243 220 321 231 212 225 235 251 158 212 35 74 60 55 350 337 295 249 238 222 203 188 190 189 190 179 180 179 178 178 179